Regional Weather Roundup
Issued by NWS State College, PA

Home | Current Version | Previous Version | Text Only | Print | Product List | Glossary Off
Versions: 1 2 3 4 5 6 7 8 9 10 11 12 13 14 15 16 17 18 19 20 21 22 23 24 25 26 27 28 29 30 31 32 33 34 35 36 37 38 39 40 41 42 43 44 45 46 47 48 49 50

097
ASUS41 KCTP 271710
RWRCTP

REGIONAL WEATHER ROUNDUP
NATIONAL WEATHER SERVICE STATE COLLEGE PA
100 PM EDT THU JUL 27 2017

Note: "fair" indicates few or no clouds below 12,000 feet with no
significant weather and/or obstructions to visibility.

* = STATION THAT DOES NOT REPORT PRECIPITATION /E.G. RAIN...SNOW...ETC/
    THUNDER OR FOG.

PAZ002>004-007>009-013>016-020>023-029>032-271800-
WESTERN PENNSYLVANIA

CITY           SKY/WX    TMP DP  RH WIND       PRES   REMARKS
ERIE           PTSUNNY   79  66  64 NW8       29.94F
MEADVILLE      MOSUNNY   79  64  60 VRB3      29.97F
FRANKLIN*        N/A    N/A N/A N/A MISG        N/A
NEW CASTLE     FAIR      81  62  52 CALM      29.96F
BEAVER COUNTY  NOT AVBL
BUTLER*        CLOUDY    81  63  54 SW6       29.96F
PITTSBURGH INT CLOUDY    80  63  55 W7        29.96F
PITTSBURGH     MOSUNNY   80  64  58 SW5       29.96F
INDIANA*       MOSUNNY   79  66  65 SW8       30.00F
LATROBE        PTSUNNY   79  68  69 W7        29.98F
WASHINGTON CO* CLOUDY    79  66  65 W7        29.97F
$$

PAZ004>006-010>012-017>019-024>028-033>037-041-042-045-046-049>053-271800-
CENTRAL PENNSYLVANIA

CITY           SKY/WX    TMP DP  RH WIND       PRES   REMARKS
BRADFORD       CLOUDY    75  63  66 W3        30.00S
DUBOIS         CLOUDY    76  59  55 VRB6      29.98F
CLEARFIELD     CLOUDY    79  59  50 S6        29.98F
JOHNSTOWN      MOSUNNY   76  65  68 W6        30.01F
ALTOONA        CLOUDY    78  68  71 VRB3      29.99F
STATE COLLEGE  MOSUNNY   77  68  73 S5        29.96F
WILLIAMSPORT   CLOUDY    78  69  73 E6        29.94F
SELINSGROVE    CLOUDY    76  70  82 VRB6      29.96F
FT INDIANTOWN  CLOUDY    71  70  96 NE3       29.97F
CAPITAL CITY   CLOUDY    77  68  73 E5        29.95F
HARRISBURG     CLOUDY    77  70  79 SE3       29.95F
YORK           CLOUDY    79  71  76 W3        29.96F
$$

PAZ038>040-043-044-047-048-054-055-060>062-067>071-271800-
EASTERN PENNSYLVANIA

CITY           SKY/WX    TMP DP  RH WIND       PRES   REMARKS
SCRANTON       CLOUDY    75  67  76 SW9       29.97F
MOUNT POCONO   CLOUDY    69  66  90 SW3       30.01F
ALLENTOWN      CLOUDY    74  66  76 S6        29.97F
QUAKERTOWN*    CLOUDY    73  68  83 SW5       29.99F
READING        CLOUDY    75  70  84 SE5       29.96F
LANCASTER      CLOUDY    77  71  82 SE3       29.96F
COATESVILLE    CLOUDY    73  70  88 CALM      29.99F
POTTSTOWN      CLOUDY    74  69  85 S5        29.99F
BLUE BELL      CLOUDY    73  68  83 SW6       29.99F
DOYLESTOWN       N/A    N/A N/A N/A MISG      29.97F
WILLOW GROVE   NOT AVBL
NORTH PHILA    CLOUDY    79  68  69 SW7       29.98F
PHILADELPHIA   CLOUDY    78  68  71 SW8       29.97F
$$




USA.gov is the U.S. government's official web portal to all federal, state and local government web resources and services.